Location: Brantley
(31.5822°N, 86.2569°W)
Time: 22:46:14
(UTC+00:00)

A-11 Canister half - Pass Details

Date: 19 February 2026
Orbit: 1525 x 1683 km, 47.3° (Epoch: 10 March)

Event Time Altitude Azimuth Distance (km) Brightness Sun altitude
Rises 03:09:11 0° 308° (NW) 4,674 12.2 -46.0°
Reaches altitude 10° 03:12:22 10° 313° (NW) 3,692 11.5 -46.6°
Enters shadow 03:17:14 32° 332° (NNW) 2,377 10.1 -47.6°
